Showing default

D-STAR ONE SPARROW, 43881

Orbit data source: Space-Track

D-STAR ONE SPARROW, 43881 is a payload satellite owned by German Orb Sys (DE) in SSO that was launched on Thu, 27 Dec 2018 UTC via a SOYUZ-2-1A launch vehicle from the Vostochny Cosmodrome (VOSTO). Payload-class satellites include a variety of spacecraft equipped with specific instruments for various scientific and technological missions. These include communications satellites like Starlink; space stations such as the ISS; scientific satellites like the Hubble; Earth observation satellites from companies like Planet Labs, Umbra, and HawkEye 360; GPS; miniature CubeSats for education and research; and military/defense satellites.

Loading next visibility...
Identifier
43881, 2018-111F
Orbit
SSO
Country
Flag of DEDE / GER
Related business
Manufacturer
German Orb Sys
Mission
Operational Commercial Technology
Bus & Motor
CUBESAT 3U, Unknown motor
Mass
3 kg wet, 3 kg dry
Launch date (UTC)
2018-12-27 (7 years ago)
Launch vehicle
SOYUZ-2-1A
Launch site
Vostochny Cosmodrome (VOSTO)
Object type
Payload
Rocket body
Debris
Shape & HBR
Box + 1 Ant, 0.5 m
Radar Cross Section
0.061 m², Small (<0.1 m²)

Expand to show TLE details & history
Last TLE update: 8 hours ago

TLE from 8 hours ago
0 D-STAR ONE SPARROW
1 43881U 18111F   25290.88001070  .00054964  00000-0  14502-2 0  9990
2 43881  97.6049 212.0355 0008904 117.3131 242.9021 15.38253964373769
Epoch: 2025-10-17T21:07Z
TLE epoch observation values (Epoch: 2025-10-17T21:07:12.924Z)
Latitude
-0.00002°
Longitude
-131.38739°
Altitude
457.156 km
Speed
7.637 km/s
True Right ascension
14h 08m 08s
True Declination
0° 00' 00"
Sunlit
Object was in daylight at epoch
Visualization orbit readout
Latitude
Unknown
Longitude
Unknown
Altitude
Unknown
Speed
Unknown
Apparent Right ascension
Unknown
Apparent Declination
Unknown
Sunlit
N/A
Visualization observer readout
Local Sidereal Time
23:42:13
Azimuth
Unknown
Elevation
Unknown
Doppler factor
Unknown
Orbital elements
Apogee altitude
454.301 km
Perigee altitude
442.144 km
Semi-major axis
6,826.36 km
Eccentricity
0.00089
Inclination
97.6049°
RAAN
212.0355°
Arg. of periapsis
117.3131°
True anomaly
242.81131°
Mean anomaly
242.9021°
Eccentric anomaly
242.8567°
Mean motion
3.84822 °/min
Orbital period
93.55 mins
BSTAR
0.0014502
Loading maneuver chart data...
Computing Atmospheric mass density...

Documentation

Showing up to 5 results
|